Location: B?ezina
(49.8085°N, 13.6013°E)
Time: 21:02:23
(UTC+00:00)

CZ-2C R/B - Pass Details

Date: 19 May 2025
Orbit: 702 x 902 km, 98.2° (Epoch: 15 June)

Event Time Altitude Azimuth Distance (km) Brightness Sun altitude
Rises 23:22:21 0° 20° (NNE) 3,526 7.8 -20.1°
Reaches altitude 10° 23:24:59 10° 29° (NNE) 2,589 6.7 -20.0°
Maximum altitude 23:30:17 36° 95° (E) 1,404 4.3 -19.9°
Enters shadow 23:32:59 24° 142° (SE) 1,783 4.5 -19.9°
